Location: Berg
(47.2344°N, 9.5296°E)
Time: 12:34:02
(UTC+00:00)

Cosmos 2263 Rocket - Pass Details

Date: 24 January 2021
Orbit: 825 x 847 km, 71.0° (Epoch: 06 March)

Event Time Altitude Azimuth Distance (km) Brightness Sun altitude
Rises 17:52:47 0° 259° (W) 3,401 7.2 -17.0°
Reaches altitude 10° 17:56:06 10° 278° (W) 2,467 5.8 -17.5°
Maximum altitude 17:59:50 18° 320° (NW) 1,978 4.5 -18.1°
Drops below altitude 10° 18:03:34 10° 2° (N) 2,465 4.5 -18.8°
Enters shadow 18:05:57 - 17° (NNE) 3,115 4.9 -19.2°
